Location: T. Spence Memorial Observatory
(32.7356°N, 82.2098°W)
Time: 10:57:48
(UTC-05:00)

Daily predictions for brighter satellites

Satellite Brightness Start Highest point End
(mag) Time Altitude Azimuth Time Altitude Azimuth Time Altitude Azimuth
Cosmos 1908 Rocket 3.6 18:40:44 10° S 18:45:11 72° E 18:49:38 10° N
Cosmos 44 3.5 18:40:21 10° NNW 18:45:30 90° ENE 18:50:50 10° SSE
MOS 1 4.3 18:41:28 10° SSE 18:47:02 64° ENE 18:52:39 10° N
YAOGAN 1 3.0 18:43:19 10° S 18:47:38 71° W 18:51:57 10° NNW
MONITOR-E 4.1 18:52:28 10° S 18:55:29 87° W 18:58:30 10° NNW
Okean 1 3.7 18:52:53 10° N 18:56:38 39° E 19:00:21 10° SSE
MOS 1-B Rocket 4.1 18:50:57 10° SSE 18:57:24 90° ENE 19:03:09 10° NNW
Cosmos 2227 4.2 18:58:36 10° SSW 19:04:19 80° ESE 19:10:02 10° NNE
Cosmos 1633 3.9 19:01:15 10° SSW 19:04:37 42° W 19:08:02 10° N
Cosmos 1452 Rocket 4.2 19:02:40 10° NNW 19:07:50 59° WSW 19:12:57 10° S
EO 1 Del DPAF 3.5 19:06:36 10° N 19:10:24 71° WNW 19:14:11 10° SSW
CZ-4 R/B 4.3 19:07:32 10° SSW 19:10:42 22° W 19:13:49 10° NW
Cosmos 1891 Rocket 4.4 19:06:27 10° N 19:12:37 78° E 19:18:39 10° S
ARGOS Delta rocket 4.4 19:09:22 10° NNE 19:13:31 32° E 19:17:30 10° SSE
Cosmos 2034 Rocket 4.0 19:08:01 10° N 19:14:22 66° E 19:20:38 10° SSE
Meteor 1-18 Rocket 4.3 19:10:30 10° N 19:16:05 82° W 19:21:37 10° S
Cosmos 1975 Rocket 3.3 19:12:03 10° N 19:16:24 49° E 19:20:43 10° SSE
Cosmos 1437 Rocket 3.1 19:12:28 10° SSW 19:16:30 75° W 19:20:36 10° N
Cosmos 2251 Rocket 4.1 19:12:29 10° SSE 19:17:08 34° E 19:21:49 10° NE
GPS 2-05 Rocket1 2.7 19:18:48 10° W 19:21:59 66° NNW 19:23:37 25° ENE
SeaSat 1 3.9 19:21:53 17° ENE 19:22:41 17° NE 19:25:51 10° NNE
Cosmos 1536 3.6 19:20:49 10° SSE 19:24:19 29° E 19:27:51 10° NNE
SPOT 3 Rocket 3.8 19:19:10 10° S 19:24:20 72° WSW 19:29:34 10° NNW
Meteor 1-19 Rocket 4.3 19:19:18 10° N 19:24:41 51° E 19:30:05 10° SSE
Centaur D-1A AC-32 4.0 19:21:11 10° WSW 19:25:40 56° S 19:37:51 18° E
Lacrosse 5 rocket 1.8 19:22:47 10° S 19:26:08 32° ESE 19:27:09 27° E
Cosmos 1943 4.1 19:25:37 10° N 19:30:23 27° ENE 19:32:10 23° E
Meteor 1-11 Rocket 3.7 19:25:03 10° S 19:30:29 59° E 19:36:04 10° NNE
Cosmos 1184 Rocket 4.3 19:30:55 10° NNE 19:32:30 21° NE 19:32:30 21° NE
USA 215 3.2 19:27:45 10° NE 19:34:14 66° SE 19:40:43 10° SSW
ERS-2 2.0 19:33:01 10° SSE 19:36:42 86° ENE 19:40:23 10° NNW
Sakura Rocket 4.0 19:32:05 10° W 19:37:00 58° S 19:40:56 24° ESE
Resurs 01 Rocket 3.2 19:38:44 19° NE 19:38:44 19° NE 19:40:39 10° NNE
FengYun 1-2 T 4.3 19:36:48 10° S 19:42:17 77° WSW 19:47:48 10° NNW
Envisat 3.0 19:43:44 10° SSE 19:48:39 55° ENE 19:53:37 10° N
FREGAT/IRIS 3.9 19:47:54 10° S 19:50:41 40° W 19:53:30 10° NNW
SL-16 R/B 4.2 19:47:04 10° NW 19:51:51 29° WSW 19:56:37 10° SSW
HJ-1C 3.6 19:49:29 10° S 19:52:53 72° WSW 19:56:18 10° NNW
Meteor 2-9 4.5 19:54:10 10° S 19:59:32 75° E 20:05:01 10° NNE
OAO 2 Rocket 3.2 19:58:39 10° WNW 20:03:37 76° N 20:04:29 59° ENE
CZ-4C R/B 3.4 19:56:59 10° NNW 20:03:50 40° NE 20:05:22 36° ENE
Meteor 1-23 Rocket 4.3 20:03:13 10° N 20:08:56 55° E 20:09:44 50° ESE
Cosmos 1110 Rocket 4.2 20:05:03 10° NNW 20:10:21 73° WSW 20:15:11 12° S
SJ-6B 3.5 20:07:31 10° S 20:11:11 50° W 20:14:56 10° NNW
Cosmos 1603 3.9 20:05:38 10° NNW 20:11:13 68° WSW 20:16:24 12° S
COSMOS 2455 3.9 20:08:41 10° SW 20:14:23 43° WNW 20:20:07 10° NNE
Cosmos 2263 Rocket 2.7 20:10:29 10° SW 20:15:55 57° WNW 20:21:26 10° NNE
Thor Agena Rocket 4.4 20:12:06 10° N 20:16:57 48° WNW 20:21:46 10° SW
CZ-2D R/B 4.2 20:16:59 23° SSW 20:19:04 48° W 20:22:51 10° NNW
Cosmos 2151 Rocket 4.5 20:18:17 10° SSW 20:22:38 49° W 20:26:58 10° N
ATLAS CENTAUR R/B 3.4 20:37:26 10° NNW 20:39:07 23° NNW 20:39:07 23° NNW
Cosmos 2279 Rocket 4.3 20:40:09 10° N 20:44:58 56° N 20:44:58 56° N
SeaSat 1 3.9 21:01:41 33° NW 21:01:41 33° NW 21:04:36 10° NW
Lacrosse 5 rocket 4.4 21:02:42 10° W 21:02:54 11° W 21:02:54 11° W
Resurs 01 Rocket 4.4 21:16:18 15° NW 21:16:18 15° NW 21:17:16 10° NW
CZ-4C R/B 4.1 21:45:25 10° NW 21:50:38 38° W 21:50:38 38° W
